Madison, MN

9:45 AM CST on December 09, 2019 (GMT -0600)
Madison-Lac Qui Parle County

Weather History for KDXX - August, 2019

Change the Weather History Date:

Tuesday, August 27, 2019

  Actual Average (KAQP) Record (KAQP)
Temperature  
Mean Temperature 64 °F -  
Max Temperature 71 °F 77 °F 95 °F (1999)
Min Temperature 57 °F 55 °F 48 °F (2005)
Degree Days  
Heating Degree Days 1    
Growing Degree Days 14 (Base 50)    
Moisture  
Dew Point 53 °F    
Average Humidity 68    
Maximum Humidity 94    
Minimum Humidity 43    
Precipitation  
Precipitation 0.00 in - - ()
Sea Level Pressure  
Sea Level Pressure 29.83 in    
Wind  
Wind Speed 11 mph (WNW)    
Max Wind Speed 30 mph    
Max Gust Speed 40 mph    
Visibility 10 miles    
Events      
Averages and records for this station are not official NWS values.
T = Trace of Precipitation, MM = Missing Value Source: NWS Daily Summary

Daily Weather History Graph

Daily Weather History Graph

Search for Another Location

Airport or City:

Astronomy

Aug. 27, 2019 Rise Set
Actual Time 6:40 AM CDT 8:11 PM CDT
Civil Twilight 6:09 AM CDT 8:41 PM CDT
Nautical Twilight 5:32 AM CDT 9:18 PM CDT
Astronomical Twilight 4:52 AM CDT 9:58 PM CDT
Moon 2:56 AM CDT (8/27) 6:41 PM CDT (8/27)
Length of Visible Light 14h 31m
Length of Day
13h 30m
Waning Crescent, 11% of the Moon is Illuminated
Aug 27
Waning Crescent
Aug 30
New
Sep 5
First Quarter
Sep 13
Full
Sep 21
Last Quarter

Hourly Weather History & Observations

Time (CDT) Temp. Dew Point Humidity Pressure Visibility Wind Dir Wind Speed Gust Speed Precip Events Conditions
12:18 AM 60.8 °F 55.4 °F 82% 29.81 in 10.0 mi NNW 4.6 mph - N/A   Clear
12:36 AM 59.0 °F 55.4 °F 88% 29.81 in 10.0 mi Calm Calm - N/A   Clear
12:55 AM 60.8 °F 55.4 °F 82% 29.80 in 10.0 mi Calm Calm - N/A   Clear
12:56 AM 60.8 °F 55.4 °F 82% 29.80 in 10.0 mi Calm Calm - N/A   Clear
1:15 AM 57.2 °F 55.4 °F 94% 29.80 in 10.0 mi WSW 4.6 mph - N/A   Clear
1:16 AM 57.2 °F 55.4 °F 94% 29.80 in 10.0 mi WSW 4.6 mph - N/A   Clear
1:39 AM 60.8 °F 57.2 °F 88% 29.80 in 10.0 mi West 6.9 mph - N/A   Clear
1:56 AM 60.8 °F 57.2 °F 88% 29.80 in 10.0 mi West 8.1 mph - N/A   Clear
2:16 AM 60.8 °F 57.2 °F 88% 29.80 in 10.0 mi West 8.1 mph - N/A   Clear
2:35 AM 60.8 °F 55.4 °F 82% 29.79 in 10.0 mi West 6.9 mph - N/A   Clear
2:36 AM 60.8 °F 55.4 °F 82% 29.79 in 10.0 mi West 6.9 mph - N/A   Clear
2:55 AM 60.8 °F 55.4 °F 82% 29.80 in 10.0 mi West 9.2 mph - N/A   Clear
2:59 AM 60.8 °F 55.4 °F 82% 29.80 in 10.0 mi West 10.4 mph - N/A   Clear
3:17 AM 60.8 °F 55.4 °F 82% 29.79 in 10.0 mi West 9.2 mph - N/A   Clear
3:36 AM 60.8 °F 55.4 °F 82% 29.79 in 10.0 mi West 6.9 mph - N/A   Clear
3:55 AM 59.0 °F 53.6 °F 82% 29.79 in 10.0 mi West 8.1 mph - N/A   Clear
3:56 AM 59.0 °F 53.6 °F 82% 29.79 in 10.0 mi West 8.1 mph - N/A   Clear
4:15 AM 59.0 °F 53.6 °F 82% 29.79 in 10.0 mi West 6.9 mph - N/A   Clear
4:19 AM 59.0 °F 53.6 °F 82% 29.79 in 10.0 mi West 9.2 mph - N/A   Clear
4:37 AM 59.0 °F 53.6 °F 82% 29.80 in 10.0 mi West 9.2 mph - N/A   Clear
4:56 AM 59.0 °F 53.6 °F 82% 29.79 in 10.0 mi West 10.4 mph - N/A   Clear
5:15 AM 60.8 °F 53.6 °F 77% 29.79 in 10.0 mi West 10.4 mph - N/A   Clear
5:16 AM 60.8 °F 53.6 °F 77% 29.79 in 10.0 mi West 11.5 mph - N/A   Clear
5:35 AM 59.0 °F 53.6 °F 82% 29.80 in 10.0 mi West 9.2 mph - N/A   Clear
5:36 AM 59.0 °F 53.6 °F 82% 29.80 in 10.0 mi West 10.4 mph - N/A   Clear
5:59 AM 59.0 °F 53.6 °F 82% 29.81 in 10.0 mi West 10.4 mph - N/A   Clear
6:16 AM 59.0 °F 53.6 °F 82% 29.80 in 10.0 mi West 11.5 mph - N/A   Clear
6:36 AM 59.0 °F 53.6 °F 82% 29.81 in 10.0 mi West 10.4 mph - N/A   Clear
6:55 AM 59.0 °F 53.6 °F 82% 29.81 in 10.0 mi West 10.4 mph - N/A   Clear
7:15 AM 59.0 °F 53.6 °F 82% 29.81 in 10.0 mi WNW 10.4 mph - N/A   Clear
7:19 AM 59.0 °F 53.6 °F 82% 29.81 in 10.0 mi WNW 10.4 mph - N/A   Clear
7:38 AM 60.8 °F 53.6 °F 77% 29.81 in 10.0 mi West 11.5 mph 17.3 mph N/A   Clear
7:55 AM 60.8 °F 53.6 °F 77% 29.82 in 10.0 mi West 12.7 mph - N/A   Clear
8:15 AM 60.8 °F 53.6 °F 77% 29.82 in 10.0 mi WNW 11.5 mph - N/A   Clear
8:16 AM 60.8 °F 53.6 °F 77% 29.82 in 10.0 mi WNW 11.5 mph - N/A   Clear
8:36 AM 60.8 °F 53.6 °F 77% 29.83 in 10.0 mi West 10.4 mph - N/A   Clear
8:58 AM 62.6 °F 53.6 °F 72% 29.83 in 10.0 mi West 11.5 mph - N/A   Clear
9:17 AM 64.4 °F 53.6 °F 68% 29.83 in 10.0 mi WNW 15.0 mph 19.6 mph N/A   Clear
9:36 AM 64.4 °F 53.6 °F 68% 29.83 in 10.0 mi West 12.7 mph 21.9 mph N/A   Clear
9:55 AM 66.2 °F 53.6 °F 64% 29.83 in 10.0 mi WNW 15.0 mph 23.0 mph N/A   Clear
9:56 AM 66.2 °F 53.6 °F 64% 29.84 in 10.0 mi WNW 17.3 mph 23.0 mph N/A   Clear
10:15 AM 66.2 °F 53.6 °F 64% 29.83 in 10.0 mi WNW 17.3 mph 23.0 mph N/A   Clear
10:37 AM 69.8 °F 53.6 °F 56% 29.84 in 10.0 mi West 18.4 mph 25.3 mph N/A   Clear
10:56 AM 69.8 °F 51.8 °F 53% 29.84 in 10.0 mi WNW 19.6 mph 28.8 mph N/A   Clear
11:15 AM 69.8 °F 50.0 °F 49% 29.84 in 10.0 mi WNW 23.0 mph 27.6 mph N/A   Clear
11:16 AM 69.8 °F 50.0 °F 49% 29.84 in 10.0 mi WNW 21.9 mph 27.6 mph N/A   Clear
11:35 AM 69.8 °F 50.0 °F 49% 29.83 in 10.0 mi WNW 19.6 mph 27.6 mph N/A   Clear
11:58 AM 71.6 °F 50.0 °F 46% 29.83 in 10.0 mi WNW 24.2 mph 32.2 mph N/A   Clear
12:16 PM 71.6 °F 48.2 °F 43% 29.83 in 10.0 mi WNW 23.0 mph 34.5 mph N/A   Scattered Clouds
12:35 PM 71.6 °F 48.2 °F 43% 29.83 in 10.0 mi WNW 20.7 mph 32.2 mph N/A   Scattered Clouds
12:36 PM 69.8 °F 48.2 °F 46% 29.83 in 10.0 mi WNW 23.0 mph 32.2 mph N/A   Scattered Clouds
12:55 PM 69.8 °F 50.0 °F 49% 29.83 in 10.0 mi WNW 18.4 mph 27.6 mph N/A   Scattered Clouds
12:56 PM 69.8 °F 50.0 °F 49% 29.83 in 10.0 mi WNW 21.9 mph 28.8 mph N/A   Scattered Clouds
1:15 PM 71.6 °F 48.2 °F 43% 29.83 in 10.0 mi West 26.5 mph 33.4 mph N/A   Scattered Clouds
1:20 PM 71.6 °F 48.2 °F 43% 29.83 in 10.0 mi WNW 23.0 mph 32.2 mph N/A   Scattered Clouds
1:37 PM 71.6 °F 48.2 °F 43% 29.83 in 10.0 mi West 23.0 mph 29.9 mph N/A   Scattered Clouds
1:55 PM 71.6 °F 48.2 °F 43% 29.83 in 10.0 mi West 25.3 mph 33.4 mph N/A   Mostly Cloudy
2:15 PM 71.6 °F 48.2 °F 43% 29.83 in 10.0 mi WNW 26.5 mph 33.4 mph N/A   Scattered Clouds
2:35 PM 71.6 °F 50.0 °F 46% 29.83 in 10.0 mi WNW 27.6 mph 33.4 mph N/A   Scattered Clouds
2:36 PM 71.6 °F 50.0 °F 46% 29.83 in 10.0 mi WNW 26.5 mph 33.4 mph N/A   Scattered Clouds
2:58 PM 69.8 °F 48.2 °F 46% 29.83 in 10.0 mi West 21.9 mph 33.4 mph N/A   Mostly Cloudy
3:17 PM 68.0 °F 48.2 °F 49% 29.84 in 10.0 mi WNW 25.3 mph 35.7 mph N/A   Overcast
3:36 PM 68.0 °F 51.8 °F 56% 29.85 in 10.0 mi WNW 25.3 mph 34.5 mph N/A   Mostly Cloudy
3:55 PM 66.2 °F 50.0 °F 56% 29.85 in 10.0 mi WNW 25.3 mph 35.7 mph N/A   Mostly Cloudy
4:15 PM 66.2 °F 50.0 °F 56% 29.85 in 10.0 mi WNW 25.3 mph 36.8 mph N/A   Mostly Cloudy
4:37 PM 66.2 °F 51.8 °F 60% 29.86 in 10.0 mi WNW 29.9 mph 40.3 mph N/A   Overcast
4:56 PM 66.2 °F 53.6 °F 64% 29.86 in 10.0 mi WNW 20.7 mph 31.1 mph N/A   Mostly Cloudy
5:15 PM 66.2 °F 53.6 °F 64% 29.86 in 10.0 mi WNW 20.7 mph 31.1 mph N/A   Mostly Cloudy
5:16 PM 66.2 °F 53.6 °F 64% 29.86 in 10.0 mi WNW 20.7 mph 31.1 mph N/A   Mostly Cloudy
5:35 PM 66.2 °F 51.8 °F 60% 29.86 in 10.0 mi WNW 21.9 mph 35.7 mph N/A   Scattered Clouds
5:58 PM 66.2 °F 53.6 °F 64% 29.87 in 10.0 mi WNW 16.1 mph 23.0 mph N/A   Light Drizzle
6:16 PM 66.2 °F 51.8 °F 60% 29.87 in 10.0 mi WNW 24.2 mph 29.9 mph N/A   Clear
6:35 PM 66.2 °F 53.6 °F 64% 29.87 in 10.0 mi West 15.0 mph 23.0 mph N/A   Clear
6:36 PM 66.2 °F 53.6 °F 64% 29.87 in 10.0 mi West 18.4 mph 23.0 mph N/A   Clear
6:55 PM 66.2 °F 53.6 °F 64% 29.87 in 10.0 mi WNW 19.6 mph 23.0 mph N/A   Clear
6:56 PM 66.2 °F 51.8 °F 60% 29.87 in 10.0 mi WNW 18.4 mph 23.0 mph N/A   Clear
7:18 PM 66.2 °F 53.6 °F 64% 29.87 in 10.0 mi West 13.8 mph 23.0 mph N/A   Mostly Cloudy
7:37 PM 66.2 °F 53.6 °F 64% 29.87 in 10.0 mi West 12.7 mph - N/A   Scattered Clouds
7:56 PM 64.4 °F 53.6 °F 68% 29.87 in 10.0 mi West 10.4 mph - N/A   Scattered Clouds
8:15 PM 64.4 °F 53.6 °F 68% 29.87 in 10.0 mi West 11.5 mph - N/A   Mostly Cloudy
8:16 PM 64.4 °F 53.6 °F 68% 29.87 in 10.0 mi West 11.5 mph - N/A   Mostly Cloudy
8:35 PM 64.4 °F 51.8 °F 64% 29.87 in 10.0 mi West 11.5 mph 18.4 mph N/A   Overcast
8:39 PM 64.4 °F 53.6 °F 68% 29.87 in 10.0 mi West 11.5 mph 17.3 mph N/A   Overcast
8:57 PM 64.4 °F 53.6 °F 68% 29.87 in 10.0 mi West 10.4 mph 16.1 mph N/A   Mostly Cloudy
9:16 PM 62.6 °F 53.6 °F 72% 29.88 in 10.0 mi West 9.2 mph - N/A   Scattered Clouds
9:35 PM 64.4 °F 53.6 °F 68% 29.88 in 10.0 mi West 10.4 mph - N/A   Mostly Cloudy
9:36 PM 64.4 °F 53.6 °F 68% 29.88 in 10.0 mi West 11.5 mph - N/A   Mostly Cloudy
9:55 PM 64.4 °F 53.6 °F 68% 29.88 in 10.0 mi West 12.7 mph 19.6 mph N/A   Overcast
9:56 PM 64.4 °F 53.6 °F 68% 29.88 in 10.0 mi West 12.7 mph 19.6 mph N/A   Overcast
10:19 PM 64.4 °F 53.6 °F 68% 29.88 in 10.0 mi West 11.5 mph 17.3 mph N/A   Scattered Clouds
10:36 PM 64.4 °F 53.6 °F 68% 29.88 in 10.0 mi West 11.5 mph 17.3 mph N/A   Mostly Cloudy
10:56 PM 64.4 °F 53.6 °F 68% 29.89 in 10.0 mi WNW 15.0 mph - N/A   Overcast
11:15 PM 64.4 °F 53.6 °F 68% 29.89 in 10.0 mi WNW 10.4 mph - N/A   Overcast
11:16 PM 64.4 °F 53.6 °F 68% 29.89 in 10.0 mi West 11.5 mph - N/A   Overcast
11:39 PM 62.6 °F 53.6 °F 72% 29.89 in 10.0 mi West 8.1 mph - N/A   Mostly Cloudy
11:56 PM 62.6 °F 53.6 °F 72% 29.89 in 10.0 mi West 9.2 mph - N/A   Mostly Cloudy